Temperature
11 11 11 11 11 11 11 11 11 11 11 11 11 10 10 10 10 10 10 10 10 10 10 10 9 9 9 9 9 9 9 9 9 9 9 9 9 9 9 9 9 9 9
11 11 11 11 11 11 10 11 10 10 10 10 10 10 10 10 10 10 10 10 10 10 9 9 9 9 9 9 9 9 9 9 9 9 9 9 9 9 9 9 9 9 9
10 10 10 10 10 10 10 10 10 10 10 10 10 10 10 10 9 9 9 9 9 9 9 9 9 9 9 9 9 8 8 8 8 8 8 8 8 8 8 8 8 8 8
10 10 10 10 10 10 10 10 10 10 9 9 9 9 9 9 9 9 9 9 9 9 9 9 9 9 8 8 8 8 8 8 8 8 8 8 8 8 8 8 8 8 8
10 10 10 9 9 9 9 9 9 9 9 9 9 9 9 9 9 8 8 8 8 8 8 8 9 8 8 8 8 8 8 8 8 7 7 7 7 7 7 7 7 7 7
9 9 9 9 9 9 9 9 9 9 8 8 8 8 8 8 8 8 8 8 8 8 8 8 8 8 8 8 8 7 7 7 7 7 7 7 7 7 7 7 7 7 7
9 9 9 9 8 8 8 8 8 8 8 8 8 7 7 7 7 7 7 7 7 7 7 7 7 7 7 7 7 7 7 7 7 7 7 7 7 7 6 6 7 7 7
8 8 8 8 8 8 8 8 8 8 8 7 7 6 6 7 7 7 7 7 7 7 7 7 7 7 7 7 7 7 7 7 6 6 6 6 6 6 6 6 6 6 6
8 8 8 8 8 8 8 8 7 7 7 7 7 6 6 7 6 6 6 6 6 6 6 6 6 6 6 6 6 6 7 6 6 6 6 6 6 6 6 5 5 5 6
8 8 8 7 7 7 7 7 7 7 7 6 6 6 6 6 5 5 6 6 6 6 6 6 6 6 6 6 6 6 6 6 6 6 6 5 5 5 5 5 5 5 5
7 7 7 7 7 7 7 7 7 7 6 6 6 6 5 5 5 5 5 5 5 6 6 6 6 6 6 6 6 6 6 6 6 5 5 5 5 5 5 5 5 5 5
7 7 7 7 7 7 7 6 6 6 6 6 6 5 5 5 4 4 4 4 4 5 5 5 5 5 5 5 5 5 5 5 5 5 5 5 5 5 5 5 4 5 5
7 7 7 7 7 6 6 6 6 6 6 6 5 5 5 5 5 4 4 4 4 4 4 4 5 5 5 5 5 5 5 5 5 5 5 5 5 4 4 4 4 4 4
7 7 7 6 6 6 6 6 6 6 5 5 5 5 5 4 4 4 4 3 3 3 3 4 4 4 4 5 5 5 5 5 5 5 5 4 4 4 4 4 4 4 4
6 6 6 6 6 6 6 5 5 5 5 5 5 4 4 4 4 4 3 3 3 3 3 3 3 4 4 4 4 4 4 4 4 4 4 4 4 4 4 4 4 3 3
6 6 6 6 6 5 5 5 5 5 5 4 4 4 4 4 3 3 3 3 2 2 2 2 3 3 3 4 4 4 4 4 4 4 4 4 4 4 3 3 3 3 3
5 5 5 5 5 5 5 5 4 4 4 4 4 4 4 3 3 3 3 3 2 2 2 2 3 3 3 3 3 3 3 3 3 3 3 3 3 3 3 3 3 3 2
5 5 5 5 5 5 4 4 4 4 4 4 3 3 3 3 3 3 2 2 2 2 2 2 2 2 2 2 2 2 3 3 3 3 3 3 3 3 3 3 2 2 2
5 4 4 4 4 4 4 4 4 4 3 3 3 3 3 2 2 2 2 2 2 2 2 2 2 2 2 2 2 2 2 2 2 2 2 2 2 2 2 2 2 2 2
4 4 4 4 4 4 4 4 3 3 3 3 3 2 2 2 2 2 2 2 1 1 1 1 1 1 1 1 1 1 1 1 1 2 1 1 2 1 2 1 1 1 1
4 4 4 3 3 3 3 3 3 3 3 2 2 2 2 2 2 1 1 1 1 1 1 1 1 1 1 1 1 1 1 1 1 1 1 1 1 1 1 1 1 1 1
3 3 3 3 3 3 3 3 3 2 2 2 2 2 2 1 1 1 1 1 1 0 0 0 0 0 0 0 -0 -0 -0 -0 -0 0 0 0 0 0 0 0 0 1 0
3 3 3 3 3 3 3 3 2 2 2 1 1 1 1 1 1 1 1 0 0 0 -0 -0 -0 -0 -0 -0 -1 -1 -1 -1 -1 -1 -1 -0 -0 -0 -0 0 0 0 0
2 2 2 2 2 2 2 2 2 1 1 1 1 1 1 0 0 0 0 0 0 -0 -0 -0 -0 -0 -1 -1 -1 -1 -1 -1 -1 -1 -1 -1 -1 -1 -0 -0 -0 -0 -0
2 2 2 2 1 1 1 1 1 1 1 1 0 0 0 0 -0 -0 -0 -0 -0 -0 -0 -0 -1 -1 -1 -1 -1 -1 -1 -2 -2 -2 -2 -2 -2 -1 -1 -1 -1 -1 -1
1 1 1 1 1 1 1 1 1 0 -0 -0 -0 -0 -0 -0 -0 -1 -1 -1 -1 -1 -1 -1 -1 -1 -1 -1 -2 -2 -2 -2 -3 -3 -2 -2 -2 -2 -2 -1 -1 -1 -1
Wind_Speed
3 2 1 1 1 1 1 1 1 2 2 1 1 1 1 1 1 1 0 1 1 2 3 3 3 4 4 5 4 4 5 6 6 6 6 6 7 8 8 8 9 8 7
3 3 2 2 1 1 1 1 1 1 1 1 1 1 1 1 1 1 1 0 1 2 3 4 4 5 5 6 5 5 5 6 6 6 6 7 7 8 9 8 9 9 8
3 3 2 2 1 2 2 1 1 1 1 1 1 1 1 1 1 1 1 1 1 1 2 3 4 5 6 6 5 5 5 6 6 7 7 7 8 8 9 8 8 8 8
4 3 2 2 2 2 2 2 2 1 1 1 1 1 1 1 1 2 1 1 2 2 2 2 4 5 6 6 6 6 6 6 7 8 7 7 8 8 8 9 9 8 8
4 3 2 2 2 2 2 2 2 1 1 1 1 1 1 1 1 2 1 1 2 2 3 2 2 4 5 6 6 7 7 7 7 8 7 7 8 8 9 9 9 9 9
5 3 2 2 2 2 2 2 2 1 1 1 0 1 2 2 2 2 2 2 2 2 3 3 2 2 3 4 6 7 8 8 8 8 8 8 8 8 8 9 9 9 9
5 4 3 3 3 2 2 2 2 1 0 0 1 1 2 2 3 2 2 2 2 2 2 2 2 3 2 3 5 7 8 9 9 9 8 9 9 8 9 9 9 10 9
5 4 4 3 3 3 3 3 2 1 1 1 1 1 2 2 3 3 2 2 2 2 2 2 3 3 3 3 4 6 8 9 10 9 9 9 9 9 9 10 10 10 11
6 5 5 4 4 3 3 3 3 2 2 1 1 1 2 3 2 2 2 2 2 2 2 2 3 3 4 4 5 5 7 9 10 10 9 9 9 9 10 10 10 11 11
6 6 6 5 4 4 4 4 3 3 3 2 1 2 2 2 3 2 2 2 3 3 3 3 3 4 4 4 5 6 7 9 10 10 10 10 10 10 10 11 11 11 11
6 6 6 5 5 4 4 4 4 4 3 3 3 2 2 2 4 4 4 3 3 3 3 4 3 4 5 5 5 6 8 9 9 10 10 10 11 11 11 11 11 12 11
5 6 6 5 5 5 5 5 4 5 4 4 3 3 2 2 3 4 5 5 4 3 4 4 4 4 5 6 6 8 8 9 9 10 11 10 11 11 12 12 12 11 10
5 6 6 6 5 5 5 5 5 5 5 5 4 3 3 3 3 4 4 5 5 4 4 4 4 4 4 5 6 8 9 9 10 10 10 10 11 11 11 11 12 10 10
5 6 6 6 6 5 5 5 4 4 4 4 4 4 3 3 3 3 4 4 5 4 4 4 3 3 4 6 6 8 8 9 10 10 9 10 10 10 11 11 10 10 11
5 6 6 6 5 5 5 5 4 5 5 5 4 4 4 3 3 3 4 4 4 5 5 4 3 3 5 6 6 7 7 8 9 9 9 9 10 10 10 11 10 10 10
5 5 5 5 5 5 5 5 5 5 5 4 4 4 4 3 3 3 3 4 5 5 5 4 4 4 5 5 6 7 7 8 8 8 9 9 9 9 9 9 10 10 10
5 5 5 5 5 5 5 5 5 5 5 4 4 5 5 4 4 3 3 4 4 5 7 6 5 5 5 5 5 6 7 6 6 6 7 8 8 8 9 9 10 10 10
5 5 5 5 5 5 6 6 5 5 5 5 5 5 5 4 5 4 4 4 4 5 6 7 6 5 6 6 5 6 5 5 6 6 7 8 8 8 9 9 10 10 10
5 5 5 5 5 6 6 6 5 5 5 5 5 5 4 4 5 4 4 4 4 4 5 6 6 5 5 5 5 5 5 5 6 6 7 8 9 9 9 9 10 10 10
5 5 5 5 5 5 6 5 5 5 5 5 5 5 5 5 5 5 4 5 4 4 5 5 5 5 5 5 4 4 5 5 5 5 5 7 8 8 9 9 10 10 10
5 5 5 4 4 4 5 5 5 5 5 4 4 5 5 5 6 5 4 5 5 4 4 5 5 5 4 4 4 4 5 6 6 4 5 5 5 5 6 8 9 9 10
4 4 5 4 4 4 5 6 5 5 5 5 5 4 4 5 6 7 7 7 6 6 5 5 5 5 6 5 5 5 5 5 5 3 5 6 5 5 5 6 7 8 9
5 5 4 4 4 4 5 6 6 4 4 4 5 4 4 4 6 5 6 6 7 7 8 7 7 7 7 6 6 6 6 6 6 5 5 6 5 6 6 7 8 9 9
5 5 4 4 4 4 5 5 6 4 4 4 5 5 5 5 5 5 4 5 5 6 6 7 7 7 7 6 6 6 7 7 7 5 4 5 6 6 6 6 7 8 10
5 5 4 4 4 4 5 5 5 4 4 5 5 5 5 5 4 5 5 5 5 5 5 6 7 7 7 7 6 5 5 5 5 5 3 4 5 6 6 5 6 7 9
5 5 5 5 5 4 5 5 5 3 4 4 4 4 5 6 6 6 5 5 6 5 4 4 5 6 6 6 7 6 5 5 4 4 3 3 4 4 4 4 5 6 6
Wind_Direction
159 150 141 127 130 126 140 168 178 173 174 181 193 208 222 235 230 231 30 51 343 325 326 319 322 321 319 315 303 300 301 301 303 303 307 309 309 310 307 304 308 308 307
166 165 162 152 150 143 159 199 194 191 204 200 207 224 239 251 247 234 254 25 30 335 328 327 320 319 313 309 305 300 304 302 296 296 295 300 307 304 300 298 299 301 301
174 173 169 169 168 168 180 192 177 188 203 201 214 241 260 262 264 266 277 293 311 343 329 323 322 323 316 311 306 303 303 300 298 294 289 289 294 300 298 290 294 296 293
179 177 180 179 175 177 180 185 186 199 203 223 247 269 282 284 284 281 281 296 305 307 319 324 318 319 318 315 312 314 314 307 299 293 288 288 288 292 298 291 285 291 289
188 189 186 182 178 179 184 186 187 205 214 224 259 286 288 270 271 270 255 279 301 301 298 317 323 326 321 318 316 316 315 307 306 304 297 296 293 293 296 300 289 287 287
185 185 176 176 178 185 184 186 176 183 207 214 252 284 276 261 255 262 266 271 283 286 285 289 292 309 319 325 325 318 313 307 302 300 295 292 291 293 298 302 302 292 290
183 185 179 180 185 186 193 187 179 170 194 267 251 264 253 242 246 264 267 268 271 280 278 283 288 295 300 312 320 319 311 306 301 301 298 294 289 287 291 295 301 300 292
184 188 188 188 188 187 187 184 177 207 220 243 253 257 248 230 219 253 252 264 274 270 278 287 289 293 301 305 312 310 309 311 305 299 300 302 297 291 290 291 297 303 293
190 190 192 192 190 191 192 191 194 202 208 227 265 254 247 250 282 219 243 259 272 288 288 288 285 286 292 298 301 305 305 304 307 301 299 301 303 299 294 295 296 299 300
197 196 194 194 192 194 195 194 197 204 199 206 231 259 277 292 268 262 235 253 276 279 281 284 281 282 286 290 293 301 305 303 300 301 299 298 298 297 296 295 297 298 296
198 199 196 195 194 196 197 193 193 201 204 209 213 229 251 266 266 264 273 277 276 276 279 278 277 280 282 286 290 299 302 298 297 297 298 296 297 297 295 296 296 297 292
196 198 198 198 200 199 196 198 195 200 204 209 213 216 231 243 249 256 267 277 282 287 286 277 271 276 279 284 287 299 299 298 298 298 296 294 294 295 296 296 298 297 297
199 199 198 201 200 201 199 199 198 203 205 206 212 219 226 241 252 257 263 276 282 289 283 271 271 272 278 284 289 297 292 294 296 301 300 294 291 292 295 296 299 297 299
202 201 200 202 200 199 198 197 199 203 207 210 215 220 229 236 240 249 254 264 274 276 274 277 283 277 283 285 293 291 287 288 292 296 298 301 299 296 297 297 295 299 299
196 196 199 199 198 198 198 195 202 203 206 213 219 222 231 240 241 245 249 253 258 270 276 279 282 286 297 291 295 290 287 291 292 291 293 296 298 299 298 299 299 300 299
191 194 199 200 197 196 196 198 203 205 207 213 219 224 231 236 236 237 242 249 252 259 267 279 283 296 305 300 303 299 295 297 291 295 298 298 297 299 300 300 301 297 297
189 194 198 201 200 198 196 200 205 205 209 214 218 225 232 233 235 235 238 243 247 252 262 276 285 292 293 299 307 305 302 296 293 294 301 304 305 305 303 303 301 296 295
189 192 194 200 202 201 200 201 203 206 209 214 219 224 231 233 235 238 241 246 250 253 260 273 281 286 288 297 304 307 308 303 300 299 296 298 298 299 298 297 299 297 295
186 186 193 199 204 202 201 203 204 208 213 217 220 223 229 231 238 241 244 250 256 261 263 268 277 284 285 293 304 304 304 304 303 299 295 293 294 295 295 294 297 298 296
188 189 196 202 204 203 201 200 203 208 215 221 227 230 232 234 241 243 246 251 254 259 260 264 271 278 281 293 298 298 301 304 304 305 300 296 291 288 286 292 293 293 294
193 192 196 199 200 201 202 201 203 208 213 222 230 235 237 244 250 249 248 249 249 253 256 259 265 273 278 290 291 293 294 301 300 299 304 297 293 287 285 285 287 290 293
191 191 196 199 203 208 202 206 209 210 215 222 232 240 244 244 246 248 252 253 250 248 250 255 261 265 273 278 281 283 289 297 293 303 303 296 293 290 290 287 295 297 295
190 192 197 201 209 207 204 209 211 215 221 229 236 242 246 247 247 250 250 249 250 255 257 255 257 261 269 273 275 276 278 284 283 299 302 288 291 290 292 288 292 293 297
195 198 199 205 211 211 210 211 208 216 228 236 239 243 245 247 245 249 251 252 256 255 252 255 259 264 270 274 271 273 278 283 285 279 281 279 291 291 293 284 285 292 298
199 200 201 206 212 216 209 212 214 218 228 239 242 244 244 248 244 247 250 254 261 264 257 256 264 266 271 274 275 273 272 278 282 280 275 274 286 294 289 280 287 292 291
203 197 202 207 211 217 212 214 221 222 231 240 245 244 243 249 245 244 248 248 253 262 264 265 261 260 264 263 261 259 262 268 278 275 266 269 278 293 287 277 293 300 294
Height
1522 1523 1524 1524 1525 1525 1526 1527 1527 1528 1528 1529 1529 1529 1529 1529 1529 1528 1528 1528 1528 1528 1528 1528 1527 1527 1527 1526 1525 1524 1524 1523 1522 1521 1520 1519 1519 1518 1517 1517 1516 1516 1515
1520 1521 1522 1522 1523 1523 1524 1524 1525 1526 1526 1527 1527 1527 1527 1527 1526 1526 1527 1526 1526 1526 1526 1526 1525 1525 1524 1524 1523 1522 1521 1520 1519 1519 1518 1517 1516 1516 1515 1514 1513 1513 1513
1518 1519 1519 1520 1521 1521 1522 1523 1523 1523 1524 1524 1525 1525 1525 1524 1524 1524 1524 1524 1524 1524 1523 1523 1523 1522 1522 1521 1520 1519 1518 1518 1517 1516 1515 1514 1513 1513 1512 1511 1510 1510 1510
1515 1516 1517 1518 1518 1519 1520 1520 1521 1521 1521 1522 1522 1522 1522 1522 1522 1522 1522 1522 1522 1521 1521 1520 1520 1519 1519 1518 1517 1517 1516 1515 1514 1513 1512 1511 1511 1510 1509 1508 1507 1507 1506
1512 1513 1514 1515 1516 1517 1517 1518 1518 1519 1519 1519 1520 1520 1520 1520 1520 1520 1520 1519 1519 1519 1518 1517 1517 1516 1516 1515 1514 1514 1513 1512 1511 1510 1509 1508 1508 1507 1506 1505 1504 1504 1503
1510 1511 1512 1512 1513 1514 1514 1515 1515 1516 1517 1517 1517 1517 1517 1517 1517 1517 1517 1517 1516 1516 1515 1515 1514 1513 1512 1512 1511 1510 1510 1509 1508 1507 1506 1505 1504 1504 1503 1502 1501 1500 1500
1507 1508 1509 1510 1510 1511 1512 1512 1513 1513 1514 1514 1515 1515 1514 1514 1514 1514 1514 1514 1514 1513 1513 1512 1511 1510 1509 1508 1508 1507 1506 1505 1504 1503 1503 1502 1501 1500 1500 1499 1498 1497 1496
1504 1505 1506 1507 1508 1508 1509 1509 1510 1511 1511 1512 1513 1513 1513 1514 1512 1511 1511 1511 1511 1510 1509 1509 1508 1507 1506 1505 1504 1503 1503 1502 1501 1500 1499 1499 1498 1497 1496 1496 1494 1493 1493
1501 1502 1503 1504 1505 1505 1506 1507 1507 1508 1508 1509 1510 1512 1512 1511 1510 1509 1508 1508 1507 1507 1506 1505 1505 1504 1503 1502 1501 1500 1499 1498 1497 1497 1496 1495 1494 1493 1493 1492 1491 1490 1489
1498 1499 1500 1501 1502 1502 1503 1504 1504 1505 1505 1506 1507 1508 1509 1509 1509 1506 1505 1505 1504 1503 1503 1502 1501 1500 1500 1498 1497 1496 1495 1494 1493 1493 1492 1491 1490 1490 1489 1488 1487 1486 1485
1495 1496 1497 1498 1498 1499 1500 1500 1501 1502 1502 1503 1504 1504 1505 1505 1505 1505 1502 1501 1501 1500 1499 1498 1498 1497 1496 1495 1493 1492 1491 1490 1489 1488 1487 1487 1486 1485 1484 1483 1483 1482 1481
1491 1492 1494 1495 1495 1496 1497 1497 1498 1498 1499 1500 1500 1501 1501 1502 1501 1501 1500 1498 1497 1497 1496 1495 1494 1493 1492 1491 1490 1489 1487 1486 1485 1484 1483 1482 1481 1480 1480 1479 1478 1477 1476
1487 1488 1490 1491 1492 1493 1493 1494 1494 1495 1495 1496 1496 1497 1498 1498 1498 1498 1497 1496 1494 1493 1492 1491 1490 1489 1488 1487 1486 1485 1483 1482 1481 1480 1479 1477 1476 1476 1475 1474 1473 1472 1471
1483 1485 1486 1487 1488 1489 1490 1491 1491 1492 1492 1493 1493 1493 1494 1494 1494 1494 1494 1493 1491 1490 1489 1488 1487 1486 1485 1483 1482 1481 1479 1478 1477 1476 1474 1473 1472 1471 1470 1469 1468 1467 1466
1480 1481 1482 1483 1484 1485 1486 1487 1487 1488 1489 1489 1489 1490 1490 1491 1490 1490 1490 1490 1490 1488 1486 1485 1484 1482 1481 1480 1479 1477 1476 1474 1473 1472 1470 1469 1467 1466 1465 1464 1463 1462 1461
1476 1477 1478 1479 1480 1481 1482 1483 1484 1485 1485 1486 1486 1487 1487 1487 1487 1486 1486 1486 1486 1485 1483 1481 1480 1479 1478 1477 1475 1474 1472 1471 1469 1468 1466 1465 1463 1462 1461 1460 1459 1458 1457
1472 1473 1474 1476 1477 1477 1478 1479 1480 1481 1481 1482 1482 1483 1483 1483 1483 1483 1482 1482 1482 1481 1480 1478 1477 1476 1475 1474 1472 1471 1469 1467 1466 1464 1463 1461 1459 1458 1457 1456 1455 1453 1452
1468 1470 1471 1472 1473 1474 1475 1476 1476 1477 1477 1478 1478 1479 1479 1479 1479 1479 1479 1478 1478 1477 1477 1474 1474 1473 1472 1471 1469 1467 1466 1464 1462 1461 1459 1457 1456 1454 1453 1452 1450 1449 1447
1464 1466 1467 1468 1469 1470 1471 1472 1472 1473 1474 1474 1474 1475 1475 1475 1475 1475 1475 1474 1474 1473 1473 1472 1470 1469 1468 1467 1466 1464 1463 1461 1459 1458 1456 1454 1452 1451 1449 1448 1446 1445 1443
1461 1462 1464 1465 1466 1467 1467 1468 1468 1469 1470 1470 1471 1471 1471 1471 1471 1471 1471 1470 1470 1470 1469 1468 1467 1466 1465 1464 1463 1461 1459 1458 1456 1454 1452 1451 1449 1447 1446 1444 1442 1440 1439
1458 1459 1460 1461 1462 1463 1463 1464 1465 1465 1466 1466 1467 1467 1467 1467 1467 1467 1467 1467 1467 1466 1465 1464 1463 1463 1462 1461 1459 1458 1456 1454 1452 1451 1449 1447 1445 1443 1442 1440 1438 1436 1434
1454 1455 1456 1457 1458 1459 1460 1461 1461 1461 1462 1462 1463 1463 1463 1464 1463 1463 1463 1463 1463 1462 1462 1461 1460 1459 1458 1458 1457 1455 1453 1451 1449 1448 1446 1444 1442 1440 1438 1436 1434 1432 1430
1450 1451 1452 1453 1454 1455 1456 1457 1457 1458 1458 1458 1459 1459 1459 1459 1459 1459 1458 1458 1458 1458 1458 1458 1456 1455 1455 1454 1453 1451 1450 1448 1446 1445 1443 1439 1438 1436 1434 1432 1431 1429 1426
1446 1447 1448 1450 1450 1451 1452 1453 1454 1454 1454 1455 1455 1455 1455 1455 1455 1455 1455 1454 1454 1454 1454 1453 1453 1452 1452 1451 1449 1448 1447 1445 1443 1441 1439 1436 1434 1432 1430 1428 1427 1425 1423
1442 1443 1445 1445 1446 1447 1449 1449 1450 1450 1450 1451 1451 1451 1451 1451 1451 1451 1451 1450 1450 1450 1450 1449 1448 1448 1447 1446 1446 1445 1443 1441 1438 1437 1436 1434 1431 1428 1426 1425 1423 1421 1419
1438 1440 1441 1442 1443 1443 1444 1445 1446 1446 1446 1446 1447 1447 1447 1447 1447 1447 1447 1446 1446 1445 1445 1445 1444 1443 1443 1442 1441 1440 1439 1437 1435 1433 1432 1431 1428 1426 1423 1421 1420 1418 1416